Hourly Weather Bolshie Zavshicy

Today, 23 July, Friday

Time Temperature Precipitation Wind Pressure Humidity
00:00 +14°C° 0 mm 2 mps 747 mmHg 84%
01:00 +13°C° 0 mm 2 mps 747 mmHg 84%
02:00 +13°C° 0 mm 2 mps 747 mmHg 84%
03:00 +13°C° 0 mm 2 mps 747 mmHg 84%
04:00 +13°C° 0 mm 2 mps 747 mmHg 84%
05:00 +13°C° 0 mm 2 mps 747 mmHg 83%
06:00 +15°C° 0 mm 2 mps 747 mmHg 78%
07:00 +17°C° 0 mm 3 mps 747 mmHg 74%
08:00 +19°C° 0 mm 3 mps 747 mmHg 71%
09:00 +20°C° 0.1 mm 3 mps 747 mmHg 70%
10:00 +20°C° 0.1 mm 3 mps 747 mmHg 69%
11:00 +21°C° 0.1 mm 4 mps 747 mmHg 68%
12:00 +22°C° 0 mm 4 mps 747 mmHg 62%
13:00 +23°C° 0 mm 4 mps 747 mmHg 57%
14:00 +25°C° 0 mm 4 mps 746 mmHg 52%
15:00 +23°C° 0 mm 4 mps 746 mmHg 55%
16:00 +23°C° 0 mm 4 mps 746 mmHg 58%
17:00 +22°C° 0 mm 4 mps 746 mmHg 61%
18:00 +21°C° 0 mm 3 mps 746 mmHg 67%
19:00 +20°C° 0 mm 3 mps 746 mmHg 73%
20:00 +18°C° 0 mm 2 mps 746 mmHg 79%
21:00 +17°C° 0 mm 2 mps 746 mmHg 82%
22:00 +16°C° 0 mm 2 mps 746 mmHg 85%
23:00 +16°C° 0 mm 3 mps 746 mmHg 88%

Tomorrow, 24 July, Saturday

Time Temperature Precipitation Wind Pressure Humidity
00:00 +15°C° 0 mm 2 mps 746 mmHg 89%
01:00 +15°C° 0 mm 2 mps 747 mmHg 90%
02:00 +15°C° 0 mm 2 mps 747 mmHg 91%
03:00 +14°C° 0 mm 2 mps 747 mmHg 91%
04:00 +14°C° 0 mm 2 mps 747 mmHg 91%
05:00 +14°C° 0 mm 2 mps 747 mmHg 90%
06:00 +16°C° 0 mm 2 mps 747 mmHg 83%
07:00 +18°C° 0 mm 2 mps 747 mmHg 76%
08:00 +20°C° 0 mm 2 mps 747 mmHg 69%
09:00 +23°C° 0 mm 2 mps 747 mmHg 64%
10:00 +24°C° 0 mm 2 mps 747 mmHg 59%
11:00 +25°C° 0 mm 2 mps 747 mmHg 54%
12:00 +26°C° 0 mm 2 mps 747 mmHg 52%
13:00 +26°C° 0 mm 2 mps 747 mmHg 51%
14:00 +26°C° 0 mm 2 mps 747 mmHg 50%
15:00 +26°C° 0 mm 2 mps 747 mmHg 51%
16:00 +26°C° 0 mm 2 mps 747 mmHg 53%
17:00 +26°C° 0 mm 2 mps 747 mmHg 54%
18:00 +25°C° 0 mm 2 mps 747 mmHg 59%
19:00 +23°C° 0 mm 2 mps 748 mmHg 63%
20:00 +22°C° 0 mm 1 mps 748 mmHg 68%
21:00 +22°C° 0 mm 1 mps 748 mmHg 69%
22:00 +21°C° 0 mm 1 mps 748 mmHg 70%
23:00 +21°C° 0 mm 1 mps 748 mmHg 71%

Day after tomorrow, 25 July, Sunday

Time Temperature Precipitation Wind Pressure Humidity
00:00 +21°C° 0 mm 1 mps 748 mmHg 71%
01:00 +19°C° 0 mm 0 mps 748 mmHg 72%
02:00 +18°C° 0 mm 0 mps 748 mmHg 72%
03:00 +18°C° 0 mm 0 mps 749 mmHg 73%
04:00 +18°C° 0 mm 0 mps 749 mmHg 74%
05:00 +18°C° 0 mm 0 mps 749 mmHg 75%
06:00 +21°C° 0 mm 1 mps 749 mmHg 73%
07:00 +22°C° 0 mm 1 mps 749 mmHg 71%
08:00 +23°C° 0 mm 1 mps 749 mmHg 68%
09:00 +24°C° 0.2 mm 1 mps 749 mmHg 66%
10:00 +24°C° 0.2 mm 2 mps 750 mmHg 64%
11:00 +25°C° 0.2 mm 2 mps 750 mmHg 61%
12:00 +25°C° 0 mm 2 mps 750 mmHg 59%
13:00 +26°C° 0 mm 2 mps 750 mmHg 57%
14:00 +26°C° 0 mm 2 mps 750 mmHg 55%
15:00 +26°C° 0 mm 2 mps 750 mmHg 55%
16:00 +26°C° 0 mm 2 mps 750 mmHg 56%
17:00 +26°C° 0 mm 2 mps 750 mmHg 57%
18:00 +24°C° 0 mm 2 mps 750 mmHg 60%
19:00 +23°C° 0 mm 2 mps 750 mmHg 64%
20:00 +21°C° 0 mm 2 mps 750 mmHg 67%
21:00 +21°C° 0 mm 2 mps 750 mmHg 66%
22:00 +20°C° 0 mm 2 mps 750 mmHg 65%
23:00 +20°C° 0 mm 2 mps 750 mmHg 64%

26 July, Monday

Time Temperature Precipitation Wind Pressure Humidity
00:00 +19°C° 0 mm 2 mps 750 mmHg 67%
01:00 +19°C° 0 mm 2 mps 750 mmHg 70%
02:00 +18°C° 0 mm 2 mps 750 mmHg 73%
03:00 +17°C° 0 mm 2 mps 751 mmHg 75%
04:00 +17°C° 0 mm 2 mps 751 mmHg 77%
05:00 +17°C° 0 mm 2 mps 751 mmHg 79%
06:00 +19°C° 0 mm 3 mps 751 mmHg 74%
07:00 +20°C° 0 mm 3 mps 751 mmHg 68%
08:00 +22°C° 0 mm 4 mps 751 mmHg 63%
09:00 +25°C° 0 mm 4 mps 751 mmHg 58%
10:00 +26°C° 0 mm 4 mps 751 mmHg 52%
11:00 +28°C° 0 mm 4 mps 751 mmHg 47%
12:00 +28°C° 0 mm 4 mps 751 mmHg 44%
13:00 +29°C° 0 mm 4 mps 750 mmHg 42%
14:00 +29°C° 0 mm 4 mps 750 mmHg 40%
15:00 +29°C° 0 mm 4 mps 750 mmHg 44%
16:00 +28°C° 0 mm 4 mps 750 mmHg 48%
17:00 +27°C° 0 mm 4 mps 750 mmHg 52%
18:00 +26°C° 0 mm 4 mps 750 mmHg 56%
19:00 +25°C° 0 mm 3 mps 749 mmHg 61%
20:00 +22°C° 0 mm 3 mps 749 mmHg 66%
21:00 +22°C° 0 mm 3 mps 749 mmHg 67%
22:00 +21°C° 0 mm 3 mps 749 mmHg 69%
23:00 +20°C° 0 mm 3 mps 749 mmHg 70%

27 July, Tuesday

Time Temperature Precipitation Wind Pressure Humidity
00:00 +20°C° 0 mm 3 mps 749 mmHg 72%
01:00 +19°C° 0 mm 3 mps 749 mmHg 74%
02:00 +19°C° 0 mm 3 mps 749 mmHg 76%
03:00 +19°C° 0.1 mm 3 mps 749 mmHg 77%
04:00 +19°C° 0.1 mm 4 mps 749 mmHg 77%
05:00 +19°C° 0.1 mm 4 mps 749 mmHg 77%
06:00 +20°C° 0 mm 4 mps 749 mmHg 73%
07:00 +21°C° 0 mm 4 mps 748 mmHg 69%
08:00 +22°C° 0 mm 5 mps 748 mmHg 65%
09:00 +22°C° 0.1 mm 5 mps 748 mmHg 66%
10:00 +22°C° 0.1 mm 5 mps 748 mmHg 67%
11:00 +22°C° 0.1 mm 5 mps 748 mmHg 69%
12:00 +24°C° 0.1 mm 6 mps 747 mmHg 63%
13:00 +26°C° 0.1 mm 7 mps 747 mmHg 57%
14:00 +28°C° 0.1 mm 7 mps 747 mmHg 51%
15:00 +27°C° 0.7 mm 7 mps 746 mmHg 61%
16:00 +24°C° 0.7 mm 7 mps 746 mmHg 71%
17:00 +23°C° 0.7 mm 7 mps 746 mmHg 81%
18:00 +22°C° 6.3 mm 7 mps 745 mmHg 86%
19:00 +20°C° 6.3 mm 7 mps 745 mmHg 92%
20:00 +18°C° 6.3 mm 7 mps 745 mmHg 97%
21:00 +20°C° 2 mm 7 mps 745 mmHg 97%
22:00 +20°C° 2 mm 6 mps 744 mmHg 97%
23:00 +20°C° 2 mm 6 mps 744 mmHg 97%

28 July, Wednesday

Time Temperature Precipitation Wind Pressure Humidity
00:00 +20°C° 0.1 mm 5 mps 744 mmHg 97%
01:00 +20°C° 0.1 mm 5 mps 744 mmHg 97%
02:00 +20°C° 0.1 mm 4 mps 744 mmHg 97%
03:00 +19°C° 0 mm 4 mps 744 mmHg 97%
04:00 +19°C° 0 mm 4 mps 745 mmHg 96%
05:00 +18°C° 0 mm 4 mps 745 mmHg 96%
06:00 +19°C° 0 mm 4 mps 745 mmHg 92%
07:00 +20°C° 0 mm 4 mps 746 mmHg 88%
08:00 +21°C° 0 mm 4 mps 746 mmHg 84%
09:00 +23°C° 0 mm 4 mps 746 mmHg 77%
10:00 +26°C° 0 mm 4 mps 746 mmHg 69%
11:00 +27°C° 0 mm 4 mps 746 mmHg 62%
12:00 +28°C° 0 mm 4 mps 746 mmHg 59%
13:00 +29°C° 0 mm 4 mps 746 mmHg 55%
14:00 +29°C° 0 mm 3 mps 746 mmHg 51%
15:00 +29°C° 0 mm 3 mps 746 mmHg 53%
16:00 +29°C° 0 mm 3 mps 746 mmHg 55%
17:00 +29°C° 0 mm 2 mps 746 mmHg 57%
18:00 +27°C° 0.1 mm 2 mps 746 mmHg 64%
19:00 +26°C° 0.1 mm 2 mps 746 mmHg 71%
20:00 +24°C° 0.1 mm 2 mps 746 mmHg 78%
21:00 +23°C° 0.6 mm 2 mps 746 mmHg 82%
22:00 +21°C° 0.6 mm 2 mps 746 mmHg 86%
23:00 +20°C° 0.6 mm 2 mps 746 mmHg 89%
Show more

We Need Your Consent

Meteoprog and our Service Providers may store and access personal data such as cookies, device identifiers or other similar technologies on your device and process such data to personalise content and ads, as well as provide social media features and to analyse the traffic.

  • Store and/or access information on your device

    Cookies, device identifiers or other information can be stored or accessed on your device for the purposes indicated above.

  • Personalised ads and content, ad and content measurement, audience insights, and products development

    Ads and content can be personalised based on a profile. More data can be added to better personalise ads and content. Ad and content performance can be measured. Insights about the audience who saw the ads and content can be derived. Such data can be used to develop or improve user’s experience, systems and software.

By clicking ‘I Agree’ you will allow the use of indicated cookies, device identifiers, web beacons or other similar technologies. Your settings can be changed in the browser on your device.

For certain purposes, legitimate interests may be relied on, rather than consent. You can read more about this in our Privacy and Cookie Policy.